This demonstration page uses our WeatherBlox Daily Observations layout. Learn more.

Left ArrowRight Arrow

39.08367, -84.50855

Hourly Observations for January 20, 2017

Temp ( °F °C ) Dew Point ( °F °C ) Humidity (%) Winds ( mph kmh ) Pressure ( in mb ) Visibility ( mi km ) Precip ( " mm )
12:53 am 00:53 Cloudy with Rain 47 8.3 46 7.8 97 97 NNE 3 6 29.70 1006 5 8 0.11 2.79
1:45 am 01:45 Cloudy with Light Rain 47 8.3 46 7.8 97 97 NNE 6 9 29.68 1005 6 10 0.07 1.78
1:53 am 01:53 Cloudy with Light Rain 47 8.3 47 8.3 100 100 NNE 6 9 29.65 1004 5 8 0.08 2.03
2:27 am 02:27 Cloudy with Rain 47 8.3 47 8.3 100 100 NNE 5 7 29.65 1004 3 5 0.11 2.79
2:32 am 02:32 Cloudy with Rain 46 8 46 8 100 100 N 6 9 29.65 1004 3 5 0.00 0.00
2:53 am 02:53 Cloudy with Light Rain 48 8.9 48 8.9 100 100 N 5 7 29.62 1003 8 13 0.17 4.32
3:22 am 03:22 Cloudy with Light Rain 48 9 48 9 100 100 SSW 5 7 29.65 1004 6 10 0.00 0.00
3:53 am 03:53 Cloudy with Light Rain 50 10 49 9.4 96 96 S 3 6 29.61 1003 6 10 0.05 1.27
4:49 am 04:49 Cloudy with Light Rain 52 11 50 10 94 94 SSW 9 15 29.62 1003 9 14 0.02 0.51
4:53 am 04:53 Cloudy 51 10.6 50 10 96 96 S 10 17 29.62 1003 8 13 0.02 0.51
5:17 am 05:17 Cloudy with Light Rain 51 10.6 51 10.6 100 100 SSW 8 13 29.65 1004 5 8 0.01 0.25
5:53 am 05:53 Cloudy with Light Rain 52 11.1 52 11.1 100 100 SSW 8 13 29.64 1004 5 8 0.06 1.52
6:16 am 06:16 Cloudy with Light Rain 52 11 52 11 100 100 SSW 9 15 29.68 1005 6 10 0.00 0.00
6:53 am 06:53 Cloudy with Light Rain 53 11.7 53 11.7 100 100 SW 9 15 29.65 1004 6 10 0.03 0.76
7:53 am 07:53 Cloudy 55 12.8 54 12.2 96 96 SW 9 15 29.67 1005 8 13 0.02 0.51
8:53 am 08:53 Cloudy with Light Rain 55 12.8 54 12.2 96 96 SSW 10 17 29.70 1006 10 16 0.00 0.03
9:10 am 09:10 Cloudy 55 13 54 12 94 94 SSW 10 17 29.71 1006 10 16 0.00 0.00
9:29 am 09:29 Cloudy 55 12.8 54 12.2 96 96 SSW 9 15 29.71 1006 10 16 0.00 0.03
9:53 am 09:53 Cloudy 56 13.3 54 12.2 93 93 SSW 9 15 29.73 1007 10 16 0.00 0.03
10:53 am 10:53 Cloudy 58 14.4 55 12.8 90 90 SSW 10 17 29.74 1007 10 16 0.00 0.00
11:53 am 11:53 Cloudy 59 15 54 12.2 83 83 SW 13 20 29.73 1007 10 16 0.00 0.00
12:13 pm 12:13 Cloudy 59 15 54 12.2 83 83 SW 13 20 29.71 1006 10 16 0.00 0.00
12:53 pm 12:53 Cloudy 59 15 52 11.1 78 78 SW 13 20 29.71 1006 10 16 0.00 0.00
1:53 pm 13:53 Mostly Cloudy 60 15.6 52 11.1 75 75 SW 10 17 29.71 1006 10 16 0.00 0.00
2:53 pm 14:53 Cloudy 62 16.7 52 11.1 70 70 SW 15 24 29.70 1006 10 16 0.00 0.00
3:53 pm 15:53 Mostly Sunny 62 16.7 50 10 65 65 SW 15 24 29.70 1006 10 16 0.00 0.00
4:53 pm 16:53 Partly Cloudy 60 15.6 51 10.6 72 72 SSW 12 19 29.72 1007 10 16 0.00 0.00
5:53 pm 17:53 Cloudy 57 13.9 50 10 78 78 SSW 7 11 29.74 1007 10 16 0.00 0.00
6:53 pm 18:53 Cloudy 56 13.3 50 10 81 81 SSW 3 6 29.77 1008 10 16 0.00 0.00
7:53 pm 19:53 Partly Cloudy 51 10.6 50 10 96 96 ESE 3 6 29.77 1008 10 16 0.00 0.00
8:53 pm 20:53 Clear 49 9.4 49 9.4 100 100 Calm 29.76 1008 10 16 0.00 0.00
9:53 pm 21:53 Clear 47 8.3 47 8.3 100 100 Calm 29.76 1008 10 16 0.00 0.00
10:53 pm 22:53 Clear 45 7.2 45 7.2 100 100 Calm 29.77 1008 10 16 0.00 0.00
11:04 pm 23:04 Clear with Mist and Fog 45 7.2 45 7.2 100 100 Calm 29.80 1009 1 1 0.00 0.00
11:36 pm 23:36 Clear with Fog 45 7 45 7 100 100 Calm 29.80 1009 0 0 0.00 0.00
11:53 pm 23:53 Mostly Cloudy with Fog 44 6.7 44 6.7 100 100 Calm 29.77 1008 0 0 0.00 0.00

Powered by AerisWeather